| time (UTC) | temp F | wind direction | speed MPH | gust MPH | rain 1hr in | rain 24hr in | rain mn in | humidity % | barometer mb |
| 20260901200813 | 86 | 101 | 1.0 | 2.0 | 0.00 | 0.00 | 0.00 | 75 | 981.1 |
| 20260901200313 | 86 | 258 | 1.0 | 2.0 | 0.00 | 0.00 | 0.00 | 75 | 981.1 |
| 20260901195252 | 86 | 52 | 2.0 | 4.0 | 0.00 | 0.00 | 0.00 | 76 | 981.3 |
| 20260901194751 | 86 | 315 | 5.0 | 7.0 | 0.00 | 0.00 | 0.00 | 77 | 981.3 |
| 20260901194251 | 86 | 264 | 2.0 | 4.0 | 0.00 | 0.00 | 0.00 | 76 | 981.3 |
| 20260901193751 | 86 | 285 | 2.0 | 3.0 | 0.00 | 0.00 | 0.00 | 75 | 981.3 |
| 20260901193250 | 86 | 248 | 2.0 | 3.0 | 0.00 | 0.00 | 0.00 | 75 | 981.3 |
| 20260901192750 | 87 | 318 | 4.0 | 5.0 | 0.00 | 0.00 | 0.00 | 75 | 981.3 |
| 20260901192250 | 87 | 294 | 1.0 | 3.0 | 0.00 | 0.00 | 0.00 | 75 | 981.4 |
| 20260901191749 | 86 | 266 | 1.0 | 3.0 | 0.00 | 0.00 | 0.00 | 75 | 981.5 |
| 20260901191249 | 86 | 111 | 1.0 | 3.0 | 0.00 | 0.00 | 0.00 | 77 | 981.6 |
| 20260901190749 | 85 | 242 | 1.0 | 3.0 | 0.00 | 0.00 | 0.00 | 79 | 981.6 |
| 20260901190248 | 85 | 346 | 2.0 | 3.0 | 0.00 | 0.00 | 0.00 | 78 | 981.7 |
| 20260901185748 | 85 | 293 | 3.0 | 5.0 | 0.00 | 0.00 | 0.00 | 77 | 981.8 |
| 20260901184726 | 84 | 283 | 4.0 | 7.0 | 0.00 | 0.00 | 0.00 | 78 | 981.8 |
| 20260901184226 | 84 | 299 | 3.0 | 4.0 | 0.00 | 0.00 | 0.00 | 79 | 981.8 |
| 20260901183725 | 84 | 344 | 2.0 | 4.0 | 0.00 | 0.00 | 0.00 | 80 | 981.8 |
| 20260901183225 | 84 | 321 | 5.0 | 8.0 | 0.00 | 0.00 | 0.00 | 80 | 981.8 |
| 20260901182724 | 83 | 274 | 5.0 | 6.0 | 0.00 | 0.00 | 0.00 | 81 | 981.8 |
| 20260901182224 | 83 | 303 | 4.0 | 7.0 | 0.00 | 0.00 | 0.00 | 81 | 981.8 |
| 20260901181723 | 83 | 314 | 5.0 | 8.0 | 0.00 | 0.00 | 0.00 | 80 | 981.9 |
| 20260901180702 | 83 | 302 | 5.0 | 8.0 | 0.00 | 0.00 | 0.00 | 81 | 981.8 |
| 20260901180202 | 83 | 328 | 4.0 | 7.0 | 0.00 | 0.00 | 0.00 | 80 | 981.8 |
| 20260901175701 | 84 | 276 | 6.0 | 8.0 | 0.00 | 0.00 | 0.00 | 81 | 981.7 |
| 20260901175201 | 84 | 318 | 3.0 | 8.0 | 0.00 | 0.00 | 0.00 | 80 | 981.7 |
| 20260901174700 | 84 | 276 | 2.0 | 3.0 | 0.00 | 0.00 | 0.00 | 80 | 981.7 |
| 20260901174200 | 84 | 267 | 4.0 | 6.0 | 0.00 | 0.00 | 0.00 | 81 | 981.8 |
| 20260901173700 | 83 | 299 | 5.0 | 7.0 | 0.00 | 0.00 | 0.00 | 79 | 981.8 |
| 20260901173200 | 84 | 295 | 5.0 | 7.0 | 0.00 | 0.00 | 0.00 | 80 | 981.7 |
| 20260901172700 | 83 | 306 | 5.0 | 7.0 | 0.00 | 0.00 | 0.00 | 80 | 981.7 |
| 20260901172159 | 83 | 283 | 5.0 | 7.0 | 0.00 | 0.00 | 0.00 | 81 | 981.8 |
| 20260901170617 | 83 | 305 | 6.0 | 8.0 | 0.00 | 0.00 | 0.00 | 80 | 981.9 |
| 20260901170117 | 83 | 280 | 7.0 | 10.0 | 0.00 | 0.00 | 0.00 | 80 | 981.9 |
| 20260901165616 | 83 | 275 | 7.0 | 9.0 | 0.00 | 0.00 | 0.00 | 79 | 981.8 |
| 20260901165116 | 82 | 325 | 3.0 | 7.0 | 0.00 | 0.00 | 0.00 | 80 | 981.9 |
| 20260901164616 | 82 | 274 | 7.0 | 12.0 | 0.00 | 0.00 | 0.00 | 80 | 982.0 |
| 20260901164116 | 82 | 309 | 5.0 | 7.0 | 0.00 | 0.00 | 0.00 | 80 | 982.0 |
| 20260901163616 | 82 | 280 | 6.0 | 7.0 | 0.00 | 0.00 | 0.00 | 80 | 982.0 |
| 20260901163115 | 83 | 269 | 7.0 | 8.0 | 0.00 | 0.00 | 0.00 | 79 | 982.0 |
| 20260901162053 | 83 | 323 | 6.0 | 9.0 | 0.00 | 0.00 | 0.00 | 78 | 981.9 |
| 20260901161553 | 82 | 310 | 2.0 | 6.0 | 0.00 | 0.00 | 0.00 | 80 | 981.9 |
| 20260901161053 | 82 | 303 | 4.0 | 6.0 | 0.00 | 0.00 | 0.00 | 80 | 982.0 |
| 20260901160555 | 82 | 322 | 2.0 | 5.0 | 0.00 | 0.00 | 0.00 | 80 | 982.0 |
| 20260901160052 | 82 | 271 | 5.0 | 8.0 | 0.00 | 0.00 | 0.00 | 81 | 982.0 |
| 20260901155552 | 82 | 280 | 5.0 | 8.0 | 0.00 | 0.00 | 0.00 | 81 | 982.0 |
| 20260901155052 | 81 | 308 | 4.0 | 9.0 | 0.00 | 0.00 | 0.00 | 80 | 982.1 |
| 20260901154551 | 81 | 284 | 5.0 | 8.0 | 0.00 | 0.00 | 0.00 | 81 | 982.2 |
| 20260901154050 | 80 | 274 | 4.0 | 5.0 | 0.00 | 0.00 | 0.00 | 82 | 982.2 |
| 20260901153549 | 80 | 293 | 5.0 | 7.0 | 0.00 | 0.00 | 0.00 | 83 | 982.2 |
| 20260901153049 | 80 | 269 | 6.0 | 8.0 | 0.00 | 0.00 | 0.00 | 82 | 982.2 |
| 20260901152549 | 80 | 281 | 2.0 | 4.0 | 0.00 | 0.00 | 0.00 | 82 | 982.2 |
| 20260901151527 | 80 | 315 | 6.0 | 9.0 | 0.00 | 0.00 | 0.00 | 83 | 982.2 |
| 20260901151027 | 80 | 319 | 6.0 | 9.0 | 0.00 | 0.00 | 0.00 | 83 | 982.3 |
| 20260901150527 | 79 | 306 | 3.0 | 4.0 | 0.00 | 0.00 | 0.00 | 85 | 982.3 |
| 20260901150026 | 79 | 303 | 4.0 | 6.0 | 0.00 | 0.00 | 0.00 | 85 | 982.3 |
| 20260901143922 | 78 | 299 | 4.0 | 5.0 | 0.00 | 0.00 | 0.00 | 86 | 982.1 |
| 20260901142339 | 77 | 308 | 4.0 | 5.0 | 0.00 | 0.00 | 0.00 | 87 | 982.2 |
| 20260901141839 | 77 | 282 | 2.0 | 3.0 | 0.00 | 0.00 | 0.00 | 89 | 982.3 |
| 20260901140818 | 77 | 319 | 3.0 | 5.0 | 0.00 | 0.00 | 0.00 | 89 | 982.3 |
| 20260901140317 | 76 | 325 | 4.0 | 7.0 | 0.00 | 0.00 | 0.00 | 89 | 982.2 |
| 20260901135817 | 76 | 324 | 2.0 | 4.0 | 0.00 | 0.00 | 0.00 | 90 | 982.2 |
| 20260901135317 | 76 | 275 | 3.0 | 6.0 | 0.00 | 0.00 | 0.00 | 91 | 982.1 |
| 20260901134817 | 76 | 328 | 2.0 | 3.0 | 0.00 | 0.00 | 0.00 | 91 | 982.3 |
| 20260901134316 | 76 | 307 | 3.0 | 5.0 | 0.00 | 0.00 | 0.00 | 91 | 982.3 |
| 20260901133816 | 75 | 343 | 1.0 | 3.0 | 0.00 | 0.00 | 0.00 | 92 | 982.3 |
| 20260901133316 | 75 | 307 | 4.0 | 6.0 | 0.00 | 0.00 | 0.00 | 92 | 982.3 |
| 20260901132816 | 75 | 269 | 2.0 | 3.0 | 0.00 | 0.00 | 0.00 | 93 | 982.4 |
| 20260901132316 | 75 | 333 | 2.0 | 4.0 | 0.00 | 0.00 | 0.00 | 93 | 982.5 |
| 20260901131815 | 75 | 308 | 3.0 | 4.0 | 0.00 | 0.00 | 0.00 | 93 | 982.6 |
| 20260901131315 | 75 | 300 | 2.0 | 5.0 | 0.00 | 0.00 | 0.00 | 93 | 982.6 |
| 20260901130815 | 75 | 319 | 4.0 | 5.0 | 0.00 | 0.00 | 0.00 | 93 | 982.7 |
| 20260901130314 | 75 | 345 | 3.0 | 5.0 | 0.00 | 0.00 | 0.00 | 93 | 982.7 |
| 20260901125814 | 75 | 284 | 3.0 | 4.0 | 0.00 | 0.00 | 0.00 | 93 | 982.7 |
| 20260901125314 | 75 | 337 | 3.0 | 5.0 | 0.00 | 0.00 | 0.00 | 92 | 982.6 |
| 20260901124814 | 75 | 351 | 3.0 | 4.0 | 0.00 | 0.00 | 0.00 | 93 | 982.6 |
| 20260901124314 | 74 | 346 | 2.0 | 4.0 | 0.00 | 0.00 | 0.00 | 93 | 982.6 |
| 20260901123814 | 74 | 243 | 3.0 | 4.0 | 0.00 | 0.00 | 0.00 | 93 | 982.5 |
| 20260901123313 | 74 | 250 | 2.0 | 3.0 | 0.00 | 0.00 | 0.00 | 94 | 982.6 |
| 20260901122813 | 74 | 330 | 2.0 | 3.0 | 0.00 | 0.00 | 0.00 | 94 | 982.6 |
| 20260901122313 | 73 | 244 | 2.0 | 2.0 | 0.00 | 0.00 | 0.00 | 94 | 982.6 |
| 20260901121812 | 73 | 258 | 2.0 | 3.0 | 0.00 | 0.00 | 0.00 | 94 | 982.5 |
| 20260901121311 | 73 | 284 | 2.0 | 3.0 | 0.00 | 0.00 | 0.00 | 94 | 982.5 |
| 20260901120811 | 73 | 254 | 1.0 | 2.0 | 0.00 | 0.00 | 0.00 | 95 | 982.4 |
| 20260901120311 | 72 | 279 | 1.0 | 2.0 | 0.00 | 0.00 | 0.00 | 95 | 982.4 |
| 20260901115811 | 72 | 261 | 3.0 | 4.0 | 0.00 | 0.00 | 0.00 | 95 | 982.4 |
| 20260901115310 | 72 | 277 | 2.0 | 3.0 | 0.00 | 0.00 | 0.00 | 95 | 982.4 |
| 20260901114810 | 71 | 268 | 2.0 | 3.0 | 0.00 | 0.00 | 0.00 | 95 | 982.2 |
| 20260901114310 | 71 | 324 | 2.0 | 3.0 | 0.00 | 0.00 | 0.00 | 95 | 982.2 |
| 20260901113810 | 71 | 261 | 1.0 | 3.0 | 0.00 | 0.00 | 0.00 | 95 | 982.2 |
| 20260901113309 | 70 | 243 | 1.0 | 2.0 | 0.00 | 0.00 | 0.00 | 95 | 982.2 |
| 20260901112809 | 70 | 236 | 1.0 | 3.0 | 0.00 | 0.00 | 0.00 | 95 | 982.2 |
| 20260901112309 | 70 | 276 | 1.0 | 3.0 | 0.00 | 0.00 | 0.00 | 95 | 982.1 |
| 20260901111247 | 70 | 310 | 1.0 | 1.0 | 0.00 | 0.00 | 0.00 | 95 | 982.0 |
| 20260901110746 | 70 | 0 | 0.0 | 0.0 | 0.00 | 0.00 | 0.00 | 95 | 982.0 |
| 20260901110246 | 70 | 252 | 1.0 | 2.0 | 0.00 | 0.00 | 0.00 | 95 | 981.9 |
| 20260901105746 | 70 | 305 | 2.0 | 4.0 | 0.00 | 0.00 | 0.00 | 95 | 981.9 |
| 20260901105246 | 70 | 259 | 1.0 | 2.0 | 0.00 | 0.00 | 0.00 | 95 | 981.8 |
| 20260901104746 | 70 | 254 | 1.0 | 3.0 | 0.00 | 0.00 | 0.00 | 95 | 981.8 |
| 20260901104245 | 70 | 290 | 1.0 | 3.0 | 0.00 | 0.00 | 0.00 | 95 | 981.8 |
| 20260901103745 | 70 | 251 | 1.0 | 2.0 | 0.00 | 0.00 | 0.00 | 95 | 981.8 |
| 20260901103245 | 71 | 271 | 2.0 | 3.0 | 0.00 | 0.00 | 0.00 | 95 | 981.7 |
| 20260901102745 | 71 | 293 | 1.0 | 2.0 | 0.00 | 0.00 | 0.00 | 95 | 981.7 |
| 20260901101723 | 71 | 275 | 2.0 | 4.0 | 0.00 | 0.00 | 0.00 | 95 | 981.6 |
| 20260901101223 | 71 | 273 | 2.0 | 4.0 | 0.00 | 0.00 | 0.00 | 95 | 981.7 |
| 20260901100723 | 71 | 308 | 2.0 | 4.0 | 0.00 | 0.00 | 0.00 | 95 | 981.6 |
| 20260901100222 | 71 | 266 | 2.0 | 3.0 | 0.00 | 0.00 | 0.00 | 95 | 981.7 |
| 20260901095722 | 71 | 255 | 1.0 | 2.0 | 0.00 | 0.00 | 0.00 | 95 | 981.6 |
| 20260901095222 | 71 | 258 | 1.0 | 2.0 | 0.00 | 0.00 | 0.00 | 95 | 981.6 |
| 20260901094722 | 71 | 280 | 2.0 | 3.0 | 0.00 | 0.00 | 0.00 | 95 | 981.6 |
| 20260901094222 | 71 | 294 | 1.0 | 2.0 | 0.00 | 0.00 | 0.00 | 95 | 981.6 |
| 20260901093721 | 71 | 320 | 2.0 | 4.0 | 0.00 | 0.00 | 0.00 | 95 | 981.6 |
| 20260901093221 | 71 | 305 | 1.0 | 3.0 | 0.00 | 0.00 | 0.00 | 95 | 981.6 |
| 20260901092721 | 71 | 266 | 2.0 | 4.0 | 0.00 | 0.00 | 0.00 | 95 | 981.5 |
| 20260901092221 | 71 | 281 | 2.0 | 3.0 | 0.00 | 0.00 | 0.00 | 95 | 981.4 |
| 20260901091720 | 71 | 258 | 2.0 | 3.0 | 0.00 | 0.00 | 0.00 | 95 | 981.4 |
| 20260901091220 | 72 | 279 | 2.0 | 4.0 | 0.00 | 0.00 | 0.00 | 95 | 981.5 |
| 20260901090720 | 72 | 270 | 2.0 | 3.0 | 0.00 | 0.00 | 0.00 | 94 | 981.4 |
| 20260901090220 | 72 | 256 | 3.0 | 6.0 | 0.00 | 0.00 | 0.00 | 94 | 981.4 |
| 20260901085720 | 72 | 277 | 3.0 | 5.0 | 0.00 | 0.00 | 0.00 | 94 | 981.4 |
| 20260901085219 | 72 | 258 | 3.0 | 4.0 | 0.00 | 0.00 | 0.00 | 94 | 981.4 |
| 20260901084719 | 72 | 264 | 3.0 | 4.0 | 0.00 | 0.00 | 0.00 | 94 | 981.3 |
| 20260901083657 | 72 | 280 | 2.0 | 3.0 | 0.00 | 0.00 | 0.00 | 94 | 981.1 |
| 20260901083157 | 72 | 261 | 3.0 | 5.0 | 0.00 | 0.00 | 0.00 | 94 | 981.2 |
| 20260901082657 | 72 | 259 | 2.0 | 4.0 | 0.00 | 0.00 | 0.00 | 93 | 981.1 |
| 20260901082157 | 73 | 268 | 2.0 | 4.0 | 0.00 | 0.00 | 0.00 | 93 | 981.1 |
| 20260901081657 | 73 | 254 | 3.0 | 6.0 | 0.00 | 0.00 | 0.00 | 93 | 981.2 |
| 20260901081156 | 73 | 266 | 3.0 | 4.0 | 0.00 | 0.00 | 0.00 | 93 | 981.2 |
| 20260901080656 | 73 | 255 | 3.0 | 4.0 | 0.00 | 0.00 | 0.00 | 93 | 981.3 |
| 20260901080156 | 73 | 259 | 2.0 | 4.0 | 0.00 | 0.00 | 0.00 | 93 | 981.3 |
| 20260901075655 | 73 | 255 | 3.0 | 5.0 | 0.00 | 0.00 | 0.00 | 93 | 981.2 |
| 20260901075155 | 73 | 262 | 3.0 | 4.0 | 0.00 | 0.00 | 0.00 | 93 | 981.2 |
| 20260901074134 | 72 | 260 | 3.0 | 6.0 | 0.00 | 0.00 | 0.00 | 93 | 981.2 |
| 20260901073633 | 72 | 282 | 4.0 | 6.0 | 0.00 | 0.00 | 0.00 | 93 | 981.1 |
| 20260901072611 | 72 | 280 | 2.0 | 3.0 | 0.00 | 0.00 | 0.00 | 93 | 981.1 |
| 20260901071550 | 73 | 261 | 3.0 | 5.0 | 0.00 | 0.00 | 0.00 | 92 | 981.2 |
| 20260901071050 | 73 | 264 | 4.0 | 7.0 | 0.00 | 0.00 | 0.00 | 92 | 981.3 |
| 20260901065507 | 73 | 239 | 2.0 | 4.0 | 0.00 | 0.00 | 0.00 | 92 | 981.6 |
| 20260901065007 | 73 | 260 | 4.0 | 6.0 | 0.00 | 0.00 | 0.00 | 91 | 981.6 |
| 20260901063945 | 73 | 230 | 1.0 | 4.0 | 0.00 | 0.00 | 0.00 | 91 | 981.6 |
| 20260901063445 | 73 | 252 | 3.0 | 4.0 | 0.00 | 0.00 | 0.00 | 92 | 981.5 |
| 20260901062945 | 73 | 233 | 1.0 | 3.0 | 0.00 | 0.00 | 0.00 | 91 | 981.6 |
| 20260901062445 | 73 | 251 | 4.0 | 5.0 | 0.00 | 0.00 | 0.00 | 90 | 981.7 |
| 20260901061945 | 73 | 251 | 3.0 | 6.0 | 0.00 | 0.00 | 0.00 | 91 | 981.7 |
| 20260901061445 | 73 | 265 | 2.0 | 4.0 | 0.00 | 0.00 | 0.00 | 91 | 981.9 |
| 20260901060422 | 73 | 281 | 1.0 | 3.0 | 0.00 | 0.00 | 0.00 | 91 | 982.1 |
| 20260901055922 | 72 | 272 | 3.0 | 5.0 | 0.00 | 0.00 | 0.00 | 91 | 982.1 |
| 20260901055422 | 72 | 262 | 4.0 | 5.0 | 0.00 | 0.00 | 0.00 | 92 | 982.0 |
| 20260901054922 | 72 | 247 | 2.0 | 3.0 | 0.00 | 0.00 | 0.00 | 93 | 982.1 |
| 20260901054422 | 72 | 250 | 1.0 | 3.0 | 0.00 | 0.00 | 0.00 | 93 | 982.2 |
| 20260901053921 | 71 | 264 | 4.0 | 6.0 | 0.00 | 0.00 | 0.00 | 94 | 982.1 |
| 20260901053420 | 71 | 265 | 2.0 | 3.0 | 0.00 | 0.00 | 0.00 | 94 | 982.1 |
| 20260901052920 | 71 | 152 | 1.0 | 2.0 | 0.00 | 0.00 | 0.00 | 94 | 982.1 |
| 20260901052420 | 71 | 0 | 0.0 | 0.0 | 0.00 | 0.00 | 0.00 | 95 | 982.2 |
| 20260901051358 | 71 | 188 | 1.0 | 2.0 | 0.00 | 0.00 | 0.00 | 95 | 982.2 |
| 20260901050856 | 71 | 262 | 1.0 | 2.0 | 0.00 | 0.00 | 0.00 | 95 | 982.3 |
| 20260901045313 | 71 | 127 | 1.0 | 2.0 | 0.00 | 0.00 | 0.00 | 95 | 982.4 |
| 20260901044813 | 71 | 249 | 1.0 | 2.0 | 0.00 | 0.00 | 0.00 | 95 | 982.3 |
| 20260901044313 | 71 | 0 | 0.0 | 0.0 | 0.00 | 0.00 | 0.00 | 95 | 982.4 |
| 20260901043812 | 71 | 279 | 1.0 | 2.0 | 0.00 | 0.00 | 0.00 | 94 | 982.4 |
| 20260901043312 | 71 | 248 | 2.0 | 4.0 | 0.00 | 0.00 | 0.00 | 94 | 982.4 |
| 20260901042812 | 71 | 164 | 1.0 | 2.0 | 0.00 | 0.00 | 0.00 | 94 | 982.5 |
| 20260901042312 | 71 | 148 | 2.0 | 3.0 | 0.00 | 0.00 | 0.00 | 94 | 982.6 |
| 20260901041811 | 71 | 247 | 1.0 | 2.0 | 0.00 | 0.00 | 0.00 | 94 | 982.6 |
| 20260901041311 | 71 | 149 | 1.0 | 2.0 | 0.00 | 0.00 | 0.00 | 94 | 982.7 |
| 20260901040249 | 71 | 244 | 2.0 | 3.0 | 0.00 | 0.00 | 0.00 | 94 | 982.8 |
| 20260901035749 | 71 | 0 | 0.0 | 0.0 | 0.00 | 0.00 | 0.00 | 95 | 982.9 |
| 20260901035249 | 71 | 276 | 1.0 | 2.0 | 0.00 | 0.00 | 0.00 | 95 | 982.9 |
| 20260901034748 | 71 | 140 | 1.0 | 1.0 | 0.00 | 0.00 | 0.00 | 95 | 983.0 |
| 20260901034247 | 71 | 193 | 1.0 | 1.0 | 0.00 | 0.00 | 0.00 | 95 | 983.0 |
| 20260901033747 | 71 | 0 | 0.0 | 0.0 | 0.00 | 0.00 | 0.00 | 95 | 983.0 |
| 20260901033247 | 71 | 224 | 1.0 | 2.0 | 0.00 | 0.00 | 0.00 | 95 | 983.0 |
| 20260901032747 | 71 | 0 | 0.0 | 0.0 | 0.00 | 0.00 | 0.00 | 95 | 982.9 |
| 20260901032246 | 71 | 164 | 1.0 | 2.0 | 0.00 | 0.00 | 0.00 | 95 | 982.9 |
| 20260901031225 | 71 | 235 | 1.0 | 3.0 | 0.00 | 0.00 | 0.00 | 95 | 982.9 |
| 20260901030725 | 71 | 228 | 2.0 | 3.0 | 0.00 | 0.00 | 0.00 | 95 | 982.9 |
| 20260901030225 | 71 | 45 | 1.0 | 2.0 | 0.00 | 0.00 | 0.00 | 95 | 982.9 |
| 20260901025724 | 71 | 348 | 1.0 | 2.0 | 0.00 | 0.00 | 0.00 | 95 | 982.9 |
| 20260901024141 | 71 | 85 | 1.0 | 3.0 | 0.00 | 0.00 | 0.00 | 95 | 982.9 |
| 20260901023640 | 71 | 64 | 0.0 | 1.0 | 0.00 | 0.00 | 0.00 | 95 | 983.0 |
| 20260901022619 | 71 | 0 | 0.0 | 0.0 | 0.00 | 0.00 | 0.00 | 95 | 983.0 |
| 20260901022118 | 71 | 146 | 1.0 | 2.0 | 0.00 | 0.00 | 0.00 | 95 | 983.0 |
| 20260901021617 | 71 | 132 | 1.0 | 2.0 | 0.00 | 0.00 | 0.00 | 95 | 983.0 |
| 20260901021117 | 71 | 0 | 0.0 | 0.0 | 0.00 | 0.00 | 0.00 | 95 | 983.0 |
| 20260901020617 | 71 | 151 | 3.0 | 3.0 | 0.00 | 0.00 | 0.00 | 95 | 983.0 |
| 20260901020116 | 71 | 141 | 2.0 | 3.0 | 0.00 | 0.00 | 0.00 | 95 | 983.0 |
| 20260901015055 | 71 | 149 | 2.0 | 4.0 | 0.00 | 0.00 | 0.00 | 95 | 983.1 |
| 20260901014555 | 71 | 132 | 1.0 | 1.0 | 0.00 | 0.00 | 0.00 | 95 | 983.1 |
| 20260901014054 | 71 | 154 | 2.0 | 3.0 | 0.00 | 0.00 | 0.00 | 95 | 983.1 |
| 20260901013554 | 71 | 170 | 1.0 | 2.0 | 0.00 | 0.00 | 0.00 | 95 | 983.2 |
| 20260901013053 | 71 | 145 | 2.0 | 2.0 | 0.00 | 0.00 | 0.00 | 95 | 983.1 |
| 20260901012552 | 71 | 148 | 1.0 | 2.0 | 0.00 | 0.00 | 0.00 | 95 | 983.1 |
| 20260901011531 | 71 | 166 | 2.0 | 4.0 | 0.00 | 0.00 | 0.00 | 95 | 983.1 |
| 20260901011031 | 71 | 153 | 2.0 | 3.0 | 0.00 | 0.00 | 0.00 | 95 | 983.2 |
| 20260901010531 | 71 | 147 | 2.0 | 3.0 | 0.00 | 0.00 | 0.00 | 95 | 983.2 |
| 20260901010031 | 71 | 279 | 1.0 | 3.0 | 0.00 | 0.00 | 0.00 | 95 | 983.0 |
| 20260901005530 | 71 | 145 | 2.0 | 4.0 | 0.00 | 0.00 | 0.00 | 95 | 983.2 |
| 20260901005030 | 71 | 173 | 3.0 | 6.0 | 0.00 | 0.00 | 0.00 | 95 | 983.2 |
| 20260901004530 | 71 | 163 | 3.0 | 4.0 | 0.00 | 0.00 | 0.00 | 95 | 983.2 |
| 20260901002946 | 72 | 157 | 2.0 | 3.0 | 0.00 | 0.00 | 0.00 | 95 | 983.3 |
| 20260901002446 | 72 | 237 | 2.0 | 4.0 | 0.00 | 0.00 | 0.00 | 95 | 983.3 |
| 20260901001946 | 72 | 275 | 1.0 | 3.0 | 0.00 | 0.00 | 0.00 | 95 | 983.4 |
| 20260901001446 | 72 | 155 | 1.0 | 3.0 | 0.00 | 0.00 | 0.00 | 95 | 983.4 |
| 20260901000945 | 72 | 130 | 1.0 | 2.0 | 0.00 | 0.00 | 0.00 | 95 | 983.4 |
| 20260901000444 | 72 | 255 | 1.0 | 3.0 | 0.00 | 0.00 | 0.00 | 95 | 983.4 |
| 20260831235944 | 73 | 218 | 1.0 | 2.0 | 0.00 | 0.00 | 0.00 | 95 | 983.4 |
| 20260831235444 | 73 | 166 | 1.0 | 3.0 | 0.00 | 0.00 | 0.00 | 95 | 983.5 |
| 20260831234944 | 73 | 199 | 1.0 | 1.0 | 0.00 | 0.00 | 0.00 | 95 | 983.5 |
| 20260831233922 | 73 | 211 | 2.0 | 3.0 | 0.00 | 0.00 | 0.00 | 95 | 983.6 |
| 20260831233422 | 73 | 189 | 1.0 | 2.0 | 0.00 | 0.00 | 0.00 | 95 | 983.6 |
| 20260831232922 | 73 | 124 | 1.0 | 2.0 | 0.00 | 0.00 | 0.00 | 95 | 983.5 |
| 20260831232422 | 73 | 163 | 1.0 | 2.0 | 0.00 | 0.00 | 0.00 | 95 | 983.6 |
| 20260831231921 | 74 | 213 | 1.0 | 2.0 | 0.00 | 0.00 | 0.00 | 95 | 983.6 |
| 20260831231421 | 74 | 197 | 1.0 | 3.0 | 0.00 | 0.00 | 0.00 | 95 | 983.6 |
| 20260831230921 | 74 | 172 | 2.0 | 3.0 | 0.00 | 0.00 | 0.00 | 94 | 983.5 |
| 20260831230420 | 74 | 173 | 1.0 | 3.0 | 0.00 | 0.00 | 0.00 | 95 | 983.6 |
| 20260831225920 | 74 | 227 | 1.0 | 2.0 | 0.00 | 0.00 | 0.00 | 94 | 983.6 |
| 20260831224859 | 74 | 178 | 2.0 | 3.0 | 0.00 | 0.00 | 0.00 | 94 | 983.5 |
| 20260831224359 | 74 | 207 | 1.0 | 2.0 | 0.00 | 0.00 | 0.00 | 94 | 983.5 |
| 20260831223337 | 74 | 172 | 1.0 | 2.0 | 0.00 | 0.00 | 0.00 | 94 | 983.6 |
| 20260831222836 | 74 | 194 | 2.0 | 3.0 | 0.00 | 0.00 | 0.00 | 94 | 983.8 |
| 20260831222336 | 75 | 201 | 1.0 | 2.0 | 0.00 | 0.00 | 0.00 | 93 | 983.8 |
| 20260831221836 | 74 | 0 | 0.0 | 0.0 | 0.00 | 0.00 | 0.00 | 93 | 983.9 |
| 20260831220814 | 75 | 233 | 2.0 | 4.0 | 0.00 | 0.00 | 0.00 | 93 | 983.8 |
| 20260831220314 | 75 | 0 | 0.0 | 0.0 | 0.00 | 0.00 | 0.00 | 93 | 983.4 |
| 20260831215814 | 75 | 171 | 2.0 | 3.0 | 0.00 | 0.00 | 0.00 | 92 | 983.4 |
| 20260831215314 | 75 | 167 | 2.0 | 3.0 | 0.00 | 0.00 | 0.00 | 93 | 983.3 |
| 20260831214813 | 75 | 184 | 2.0 | 4.0 | 0.00 | 0.00 | 0.00 | 93 | 983.2 |
| 20260831214313 | 75 | 154 | 2.0 | 4.0 | 0.00 | 0.00 | 0.00 | 92 | 983.5 |
| 20260831213812 | 76 | 260 | 2.0 | 4.0 | 0.00 | 0.00 | 0.00 | 91 | 983.6 |
| 20260831213312 | 76 | 268 | 2.0 | 4.0 | 0.00 | 0.00 | 0.00 | 90 | 983.6 |
| 20260831212250 | 74 | 119 | 2.0 | 3.0 | 0.00 | 0.00 | 0.00 | 93 | 983.5 |
| 20260831211750 | 74 | 182 | 3.0 | 4.0 | 0.00 | 0.00 | 0.00 | 94 | 983.5 |
| 20260831210729 | 74 | 155 | 2.0 | 7.0 | 0.00 | 0.00 | 0.00 | 96 | 983.8 |
| 20260831210229 | 73 | 165 | 1.0 | 2.0 | 0.00 | 0.00 | 0.00 | 96 | 983.9 |
| 20260831205728 | 73 | 0 | 0.0 | 0.0 | 0.00 | 0.00 | 0.00 | 95 | 983.9 |
| 20260831205228 | 73 | 164 | 2.0 | 3.0 | 0.00 | 0.00 | 0.00 | 95 | 983.7 |
| 20260831204728 | 73 | 154 | 2.0 | 2.0 | 0.00 | 0.00 | 0.00 | 95 | 984.0 |
| 20260831204228 | 73 | 151 | 0.0 | 1.0 | 0.00 | 0.00 | 0.00 | 95 | 984.1 |
| 20260831203205 | 73 | 0 | 0.0 | 0.0 | 0.00 | 0.00 | 0.00 | 95 | 984.1 |
| 20260831202704 | 73 | 77 | 1.0 | 1.0 | 0.00 | 0.00 | 0.00 | 95 | 984.1 |
| 20260831202204 | 73 | 112 | 1.0 | 2.0 | 0.00 | 0.00 | 0.00 | 95 | 984.0 |
| 20260831201704 | 73 | 139 | 1.0 | 1.0 | 0.00 | 0.00 | 0.00 | 95 | 984.1 |
| 20260831201203 | 73 | 197 | 0.0 | 1.0 | 0.00 | 0.00 | 0.00 | 95 | 984.0 |